Overview Statistics Trail Chart Weather Telemetry Raw packets
 

This is the latest recevied weather packets stored in our database for station/object OE2WNL. If no packets are shown the sender has not sent any weather packets the latest 10 day(s).

<< 1 2 3 4 >>
Time Temp. Humidity Pressure Rain* Wind** Luminosity Snow
1788567158 15° C 80% 1015.9 hPa 0 mm - - -
1788566848 15° C 80% 1016.2 hPa 0 mm - - -
1788566548 15.56° C 80% 1016.3 hPa 0 mm - - -
1788566248 15.56° C 79% 1016 hPa 0 mm - - -
1788565948 15.56° C 78% 1016.1 hPa 0 mm - - -
1788565674 15.56° C 78% 1016.5 hPa 0 mm - - -
1788565348 15° C 78% 1016.4 hPa 0 mm - - -
1788565047 15° C 79% 1016.4 hPa 0 mm - - -
1788564738 15° C 79% 1016.3 hPa 0 mm - - -
1788564427 15.56° C 76% 1016.3 hPa 0 mm - - -
1788564118 15.56° C 76% 1016.3 hPa 0 mm - - -
1788563818 15.56° C 77% 1016.4 hPa 0 mm - - -
1788563518 15.56° C 78% 1016.2 hPa 0 mm - - -
1788563208 15.56° C 78% 1016.4 hPa 0 mm - - -
1788562907 15.56° C 77% 1016.2 hPa 0 mm - - -
1788562607 15.56° C 78% 1016.2 hPa 0 mm - - -
1788562307 15.56° C 77% 1016.2 hPa 0 mm - - -
1788561998 16.11° C 76% 1016.2 hPa 0 mm - - -
1788561698 16.11° C 76% 1016 hPa 0 mm - - -
1788561398 16.11° C 76% 1016.2 hPa 0 mm - - -
1788561088 15.56° C 77% 1016.4 hPa 0 mm - - -
1788560778 16.11° C 76% 1016.4 hPa 0 mm - - -
1788560478 16.11° C 75% 1016.2 hPa 0 mm - - -
1788560178 16.11° C 75% 1016.3 hPa 0 mm - - -
1788559878 16.67° C 74% 1016.2 hPa 0 mm - - -

* Rain latest hour (hover to see other rain measurements)
** Current wind speed in m/s (hover to see current wind gust speed)